HYLAS 4

Last updated on Thu Feb 05 2026 00:02:52 GMT+0000 (Coordinated Universal Time)

1 43272U 18033B 26035.33687881 -.00000240 00000+0 00000+0 0 9998 2 43272 0.0142 87.0440 0001601 265.9764 229.1235 1.00267632 28738
UTC large
Height (km)
Speed (km/s)
/
Latitude / Longitude
Inclination (degrees)
Orbital Period (minutes)
Azimuth
Elevation
Range (km)
Doppler Factor

Next 0 passes for location: London (51.5072 / 0.1276)

Sorry there are no passes over London.